Date String (YYYY-MM-DD hh:mm:ss) UTC,Instrument flags,Ambient pressure (hPa),Sample flow (lpm),Bypass flow (lpm),Sample temperature (°C),Ambient temperature (°C),ASC tube jacket temperature (°C),LED temperature (°C),Box temperature (°C),Sample RH (%),Span deviation,Mass concentration (μg/m³),Mass concentration (μg/m³),Mass concentration (μg/m³)
DateTimeUTC,F1_M11,P_M11,Q1_M11,Q2_M11,T1_M11,T2_M11,T3_M11,T4_M11,T5_M11,U1_M11,ZSPAN_M11,X0_M11,X2_M11,X1_M11
2021-11-06 15:00:00,,0827.9,5.00,0.00,26.8,26.0,00.0,35.8,28.6,07.1,0000.0,0006.27,0001.33,0000.91
2021-11-06 15:01:00,,0828.0,4.99,0.00,26.8,26.0,00.0,35.8,28.6,06.4,0000.0,0006.55,0001.35,0000.91
2021-11-06 15:02:00,,0828.0,4.99,0.00,26.9,26.0,00.0,35.8,28.6,06.5,0000.0,0006.52,0001.32,0000.90
2021-11-06 15:03:00,,0828.0,5.02,0.00,26.9,26.0,00.0,35.8,28.6,07.5,0000.0,0006.59,0001.32,0000.90
2021-11-06 15:04:00,,0827.9,4.99,0.00,26.9,26.0,00.0,35.8,28.7,07.9,0000.0,0006.72,0001.36,0000.91
2021-11-06 15:05:00,,0827.9,5.00,0.00,26.9,26.1,00.0,35.8,28.7,08.3,0000.0,0007.00,0001.35,0000.91
2021-11-06 15:06:00,,0827.9,4.98,0.00,27.0,26.1,00.0,35.8,28.7,08.7,0000.0,0006.73,0001.34,0000.90
2021-11-06 15:07:00,,0827.9,4.99,0.00,27.0,26.1,00.0,35.9,28.8,08.5,0000.0,0006.73,0001.33,0000.90
2021-11-06 15:08:00,,0827.9,5.01,0.00,27.0,26.1,00.0,35.9,28.8,08.5,0000.0,0006.63,0001.33,0000.89
2021-11-06 15:09:00,,0827.9,5.00,0.00,27.0,26.2,00.0,35.9,28.8,08.5,0000.0,0006.44,0001.30,0000.88
2021-11-06 15:10:00,,0827.9,5.00,0.00,27.0,26.2,00.0,35.9,28.8,08.6,0000.0,0006.39,0001.29,0000.87
2021-11-06 15:11:00,,0827.8,5.01,0.00,27.0,26.2,00.0,35.9,28.9,08.7,0000.0,0003.99,0001.27,0000.87
2021-11-06 15:12:00,,0827.7,5.00,0.00,27.1,26.2,00.0,35.9,28.9,08.7,0000.0,0003.41,0001.25,0000.88
2021-11-06 15:13:00,,0827.7,4.99,0.00,27.1,26.3,00.0,35.9,28.9,08.2,0000.0,0003.25,0001.23,0000.89
2021-11-06 15:14:00,,0827.8,5.01,0.00,27.1,26.3,00.0,36.0,28.9,08.6,0000.0,0003.17,0001.24,0000.89
2021-11-06 15:15:00,,0827.9,4.99,0.00,27.1,26.3,00.0,36.0,29.0,08.8,0000.0,0003.21,0001.21,0000.88
2021-11-06 15:16:00,,0827.9,5.00,0.00,27.2,26.3,00.0,36.0,29.0,08.5,0000.0,0003.78,0001.19,0000.88
2021-11-06 15:17:00,,0828.0,5.00,0.00,27.2,26.4,00.0,36.0,29.0,07.0,0000.0,0003.01,0001.18,0000.87
2021-11-06 15:18:00,,0827.9,4.99,0.00,27.2,26.4,00.0,36.0,29.0,06.8,0000.0,0003.35,0001.16,0000.87
2021-11-06 15:19:00,,0827.9,5.00,0.00,27.2,26.4,00.0,36.1,29.1,07.3,0000.0,0004.16,0001.15,0000.86
2021-11-06 15:20:00,,0828.0,5.01,0.00,27.2,26.4,00.0,36.1,29.1,08.0,0000.0,0004.14,0001.19,0000.86
2021-11-06 15:21:00,,0827.9,5.01,0.00,27.3,26.5,00.0,36.1,29.1,08.6,0000.0,0004.08,0001.18,0000.86
2021-11-06 15:22:00,,0827.9,4.99,0.00,27.3,26.5,00.0,36.1,29.1,08.3,0000.0,0004.03,0001.16,0000.86
2021-11-06 15:23:00,,0828.0,5.00,0.00,27.3,26.5,00.0,36.1,29.2,08.3,0000.0,0004.25,0001.21,0000.86
2021-11-06 15:24:00,,0828.0,5.00,0.00,27.3,26.5,00.0,36.2,29.2,08.4,0000.0,0005.62,0001.27,0000.87
2021-11-06 15:25:00,,0828.0,5.00,0.00,27.4,26.5,00.0,36.2,29.2,08.3,0000.0,0007.00,0001.27,0000.89
2021-11-06 15:26:00,,0827.9,5.00,0.00,27.4,26.6,00.0,36.2,29.2,08.1,0000.0,0007.05,0001.30,0000.91
2021-11-06 15:27:00,,0828.0,5.00,0.00,27.4,26.6,00.0,36.2,29.3,07.9,0000.0,0006.79,0001.32,0000.93
2021-11-06 15:28:00,,0828.0,4.99,0.00,27.4,26.6,00.0,36.2,29.3,07.7,0000.0,0006.86,0001.35,0000.94
2021-11-06 15:29:00,,0827.9,5.00,0.00,27.4,26.7,00.0,36.3,29.3,08.0,0000.0,0006.68,0001.39,0000.96
2021-11-06 15:30:00,,0827.8,5.00,0.00,27.5,26.7,00.0,36.3,29.3,08.0,0000.0,0005.75,0001.38,0000.97
2021-11-06 15:31:00,,0827.8,5.00,0.00,27.5,26.7,00.0,36.3,29.3,07.6,0000.0,0005.69,0001.40,0000.99
2021-11-06 15:32:00,,0827.9,5.01,0.00,27.5,26.7,00.0,36.3,29.4,07.5,0000.0,0005.71,0001.41,0001.01
2021-11-06 15:33:00,,0827.8,5.00,0.00,27.5,26.7,00.0,36.4,29.4,07.3,0000.0,0005.98,0001.50,0001.03
2021-11-06 15:34:00,,0827.8,4.98,0.00,27.5,26.8,00.0,36.4,29.4,07.4,0000.0,0005.90,0001.53,0001.03
2021-11-06 15:35:00,,0827.9,5.01,0.00,27.6,26.8,00.0,36.4,29.4,07.4,0000.0,0004.75,0001.58,0001.04
2021-11-06 15:36:00,,0827.9,5.00,0.00,27.6,26.8,00.0,36.4,29.4,07.4,0000.0,0003.88,0001.60,0001.04
2021-11-06 15:37:00,,0827.9,5.00,0.00,27.6,26.8,00.0,36.4,29.5,07.5,0000.0,0003.95,0001.59,0001.04
2021-11-06 15:38:00,,0827.9,5.00,0.00,27.6,26.8,00.0,36.5,29.5,07.0,0000.0,0004.49,0001.58,0001.04
2021-11-06 15:39:00,,0827.8,4.99,0.00,27.6,26.9,00.0,36.5,29.5,07.2,0000.0,0004.43,0001.57,0001.04
2021-11-06 15:40:00,,0827.8,5.00,0.00,27.7,26.9,00.0,36.5,29.5,07.1,0000.0,0004.30,0001.54,0001.03
2021-11-06 15:41:00,,0827.8,5.01,0.00,27.7,26.9,00.0,36.5,29.5,07.0,0000.0,0004.34,0001.56,0001.02
2021-11-06 15:42:00,,0827.7,4.99,0.00,27.7,26.9,00.0,36.6,29.6,07.1,0000.0,0004.31,0001.55,0001.02
2021-11-06 15:43:00,,0827.7,5.00,0.00,27.7,26.9,00.0,36.6,29.6,07.4,0000.0,0005.15,0001.56,0001.02
2021-11-06 15:44:00,,0827.7,5.00,0.00,27.7,26.9,00.0,36.6,29.6,07.9,0000.0,0005.66,0001.56,0001.03
2021-11-06 15:45:00,,0827.9,5.01,0.00,27.8,26.9,00.0,36.6,29.7,07.8,0000.0,0006.68,0001.55,0001.04
2021-11-06 15:46:00,,0827.9,5.00,0.00,27.8,27.0,00.0,36.6,29.7,07.8,0000.0,0006.64,0001.49,0001.04
2021-11-06 15:47:00,,0827.8,4.99,0.00,27.8,27.0,00.0,36.7,29.7,07.2,0000.0,0006.13,0001.47,0001.04
2021-11-06 15:48:00,,0827.7,5.00,0.00,27.8,27.0,00.0,36.7,29.7,07.2,0000.0,0005.72,0001.45,0001.04
2021-11-06 15:49:00,,0827.7,5.00,0.00,27.9,27.1,00.0,36.7,29.7,07.1,0000.0,0004.75,0001.43,0001.04
2021-11-06 15:50:00,,0827.8,5.00,0.00,27.9,27.1,00.0,36.7,29.8,07.2,0000.0,0004.71,0001.43,0001.04
2021-11-06 15:51:00,,0827.7,5.00,0.00,27.9,27.1,00.0,36.7,29.8,07.2,0000.0,0005.20,0001.40,0001.02
2021-11-06 15:52:00,,0827.7,5.01,0.00,27.9,27.1,00.0,36.8,29.8,07.3,0000.0,0005.28,0001.40,0001.02
2021-11-06 15:53:00,,0827.7,5.00,0.00,28.0,27.2,00.0,36.8,29.8,07.0,0000.0,0005.31,0001.39,0001.01
2021-11-06 15:54:00,,0827.6,4.99,0.00,28.0,27.2,00.0,36.8,29.8,07.3,0000.0,0005.07,0001.39,0001.00
2021-11-06 15:55:00,,0827.5,5.00,0.00,28.0,27.2,00.0,36.8,29.9,07.3,0000.0,0004.10,0001.35,0000.98
2021-11-06 15:56:00,,0827.5,4.99,0.00,28.0,27.3,00.0,36.8,29.9,07.8,0000.0,0003.18,0001.28,0000.96
2021-11-06 15:57:00,,0827.5,5.01,0.00,28.0,27.3,00.0,36.9,29.9,07.9,0000.0,0002.97,0001.28,0000.94
2021-11-06 15:58:00,,0827.5,4.99,0.00,28.1,27.3,00.0,36.9,29.9,07.4,0000.0,0003.13,0001.31,0000.93
2021-11-06 15:59:00,,0827.4,5.02,0.00,28.1,27.3,00.0,36.9,29.9,07.7,0000.0,0003.29,0001.34,0000.91
